| time (UTC) | temp C | wind direction | speed KPH | gust KPH | rain 1hr cm | rain 24hr cm | rain mn cm | humidity % | barometer mb |
| 20260504192504 | 25 | 257 | 1.6 | 4.8 | 0.00 | 0.00 | 0.00 | 37 | 1014.6 |
| 20260504191505 | 26 | 274 | 1.6 | 4.8 | 0.00 | 0.00 | 0.00 | 39 | 1014.6 |
| 20260504191005 | 26 | 247 | 3.2 | 11.3 | 0.00 | 0.00 | 0.00 | 37 | 1014.6 |
| 20260504190505 | 26 | 252 | 3.2 | 4.8 | 0.00 | 0.00 | 0.00 | 37 | 1014.6 |
| 20260504190006 | 25 | 293 | 1.6 | 4.8 | 0.00 | 0.00 | 0.00 | 37 | 1017.3 |
| 20260504185005 | 25 | 359 | 1.6 | 4.8 | 0.00 | 0.00 | 0.00 | 38 | 1017.3 |
| 20260504184505 | 26 | 210 | 1.6 | 4.8 | 0.00 | 0.00 | 0.00 | 39 | 1017.3 |
| 20260504184007 | 26 | 135 | 3.2 | 8.0 | 0.00 | 0.00 | 0.00 | 38 | 1017.3 |
| 20260504183505 | 25 | 91 | 3.2 | 9.7 | 0.00 | 0.00 | 0.00 | 40 | 1017.3 |
| 20260504183005 | 25 | 276 | 1.6 | 8.0 | 0.00 | 0.00 | 0.00 | 41 | 1017.3 |
| 20260504182505 | 25 | 170 | 0.0 | 3.2 | 0.00 | 0.00 | 0.00 | 42 | 1017.3 |
| 20260504181505 | 25 | 10 | 0.0 | 8.0 | 0.00 | 0.00 | 0.00 | 42 | 1017.3 |
| 20260504181005 | 25 | 241 | 3.2 | 9.7 | 0.00 | 0.00 | 0.00 | 41 | 1017.3 |
| 20260504180506 | 25 | 198 | 1.6 | 8.0 | 0.00 | 0.00 | 0.00 | 44 | 1017.3 |
| 20260504180005 | 25 | 197 | 1.6 | 8.0 | 0.00 | 0.00 | 0.00 | 44 | 1017.3 |
| 20260504175505 | 25 | 280 | 0.0 | 11.3 | 0.00 | 0.00 | 0.00 | 44 | 1017.3 |
| 20260504175005 | 25 | 235 | 0.0 | 4.8 | 0.00 | 0.00 | 0.00 | 43 | 1017.3 |
| 20260504174505 | 25 | 13 | 1.6 | 11.3 | 0.00 | 0.00 | 0.00 | 44 | 1017.3 |
| 20260504174006 | 25 | 97 | 1.6 | 4.8 | 0.00 | 0.00 | 0.00 | 45 | 1017.3 |
| 20260504173505 | 25 | 344 | 0.0 | 0.0 | 0.00 | 0.00 | 0.00 | 45 | 1017.3 |
| 20260504173006 | 23 | 69 | 0.0 | 0.0 | 0.00 | 0.00 | 0.00 | 46 | 1017.3 |
| 20260504172006 | 24 | 254 | 0.0 | 0.0 | 0.00 | 0.00 | 0.00 | 45 | 1017.3 |
| 20260504171504 | 23 | 46 | 1.6 | 4.8 | 0.00 | 0.00 | 0.00 | 47 | 1017.3 |
| 20260504171005 | 23 | 260 | 0.0 | 4.8 | 0.00 | 0.00 | 0.00 | 48 | 1017.3 |
| 20260504170505 | 22 | 30 | 0.0 | 4.8 | 0.00 | 0.00 | 0.00 | 47 | 1017.3 |
| 20260504151006 | 21 | 217 | 0.0 | 11.3 | 0.00 | 0.00 | 0.00 | 50 | 1017.3 |
| 20260504150505 | 21 | 155 | 0.0 | 9.7 | 0.00 | 0.00 | 0.00 | 53 | 1017.3 |
| 20260504140505 | 17 | 289 | 3.2 | 8.0 | 0.00 | 0.00 | 0.00 | 58 | 1016.7 |
| 20260504130505 | 12 | 246 | 0.0 | 1.6 | 0.00 | 0.00 | 0.00 | 83 | 1016.7 |
| 20260504110507 | 5 | 281 | 0.0 | 0.0 | 0.00 | 0.00 | 0.00 | 93 | 1016.7 |
| 20260504100505 | 5 | 281 | 0.0 | 0.0 | 0.00 | 0.00 | 0.00 | 93 | 1016.4 |
| 20260504082005 | 5 | 281 | 0.0 | 0.0 | 0.00 | 0.00 | 0.00 | 92 | 1016.4 |
| 20260504081505 | 5 | 281 | 0.0 | 0.0 | 0.00 | 0.00 | 0.00 | 92 | 1016.4 |
| 20260504080505 | 6 | 281 | 0.0 | 0.0 | 0.00 | 0.00 | 0.00 | 92 | 1016.8 |
| 20260504050505 | 7 | 281 | 0.0 | 0.0 | 0.00 | 0.00 | 0.00 | 90 | 1017.4 |
| 20260504050005 | 7 | 281 | 0.0 | 0.0 | 0.00 | 0.00 | 0.00 | 90 | 1016.3 |
| 20260504045005 | 8 | 281 | 0.0 | 0.0 | 0.00 | 0.00 | 0.00 | 89 | 1016.3 |
| 20260504044505 | 8 | 281 | 0.0 | 0.0 | 0.00 | 0.00 | 0.00 | 89 | 1016.3 |
| 20260504044005 | 8 | 281 | 0.0 | 0.0 | 0.00 | 0.00 | 0.00 | 89 | 1016.3 |
| 20260504043505 | 8 | 281 | 0.0 | 0.0 | 0.00 | 0.00 | 0.00 | 89 | 1016.3 |
| 20260504042505 | 8 | 281 | 0.0 | 0.0 | 0.00 | 0.00 | 0.00 | 89 | 1016.3 |
| 20260504042006 | 8 | 281 | 0.0 | 0.0 | 0.00 | 0.00 | 0.00 | 89 | 1016.3 |
| 20260504041506 | 8 | 281 | 0.0 | 0.0 | 0.00 | 0.00 | 0.00 | 89 | 1016.3 |
| 20260504041005 | 8 | 281 | 0.0 | 0.0 | 0.00 | 0.00 | 0.00 | 88 | 1016.3 |
| 20260504040507 | 8 | 281 | 0.0 | 0.0 | 0.00 | 0.00 | 0.00 | 88 | 1016.3 |
| 20260504040006 | 8 | 281 | 0.0 | 0.0 | 0.00 | 0.00 | 0.00 | 88 | 1016.3 |
| 20260504035006 | 9 | 281 | 0.0 | 0.0 | 0.00 | 0.00 | 0.00 | 87 | 1016.3 |
| 20260504034506 | 9 | 281 | 0.0 | 0.0 | 0.00 | 0.00 | 0.00 | 87 | 1016.3 |
| 20260504033506 | 9 | 281 | 0.0 | 0.0 | 0.00 | 0.00 | 0.00 | 86 | 1016.3 |
| 20260504032504 | 10 | 281 | 0.0 | 0.0 | 0.00 | 0.00 | 0.00 | 86 | 1016.3 |
| 20260504032006 | 10 | 281 | 0.0 | 0.0 | 0.00 | 0.00 | 0.00 | 86 | 1016.3 |
| 20260504031506 | 10 | 281 | 0.0 | 0.0 | 0.00 | 0.00 | 0.00 | 85 | 1016.3 |
| 20260504031005 | 10 | 281 | 0.0 | 0.0 | 0.00 | 0.00 | 0.00 | 85 | 1016.3 |
| 20260504030506 | 10 | 281 | 0.0 | 0.0 | 0.00 | 0.00 | 0.00 | 85 | 1016.3 |
| 20260504030006 | 10 | 281 | 0.0 | 0.0 | 0.00 | 0.00 | 0.00 | 84 | 1016.3 |
| 20260504025505 | 10 | 281 | 0.0 | 0.0 | 0.00 | 0.00 | 0.00 | 84 | 1016.3 |
| 20260504025006 | 10 | 281 | 0.0 | 0.0 | 0.00 | 0.00 | 0.00 | 83 | 1016.3 |
| 20260504024004 | 11 | 281 | 0.0 | 0.0 | 0.00 | 0.00 | 0.00 | 82 | 1016.3 |
| 20260504023506 | 11 | 281 | 0.0 | 0.0 | 0.00 | 0.00 | 0.00 | 82 | 1016.3 |
| 20260504022505 | 11 | 281 | 0.0 | 0.0 | 0.00 | 0.00 | 0.00 | 81 | 1016.3 |
| 20260504021504 | 11 | 281 | 0.0 | 0.0 | 0.00 | 0.00 | 0.00 | 79 | 1016.3 |
| 20260504021007 | 11 | 281 | 0.0 | 0.0 | 0.00 | 0.00 | 0.00 | 79 | 1016.3 |
| 20260504015006 | 12 | 281 | 0.0 | 0.0 | 0.00 | 0.00 | 0.00 | 76 | 1016.3 |
| 20260504014505 | 12 | 281 | 0.0 | 0.0 | 0.00 | 0.00 | 0.00 | 75 | 1016.3 |
| 20260504014005 | 12 | 281 | 0.0 | 0.0 | 0.00 | 0.00 | 0.00 | 74 | 1016.3 |
| 20260504013505 | 12 | 281 | 0.0 | 0.0 | 0.00 | 0.00 | 0.00 | 73 | 1016.3 |
| 20260504013005 | 13 | 281 | 0.0 | 0.0 | 0.00 | 0.00 | 0.00 | 72 | 1016.3 |
| 20260504012005 | 13 | 281 | 0.0 | 0.0 | 0.00 | 0.00 | 0.00 | 71 | 1016.3 |
| 20260504011505 | 13 | 281 | 0.0 | 0.0 | 0.00 | 0.00 | 0.00 | 70 | 1016.3 |
| 20260504011006 | 13 | 281 | 0.0 | 0.0 | 0.00 | 0.00 | 0.00 | 68 | 1016.3 |
| 20260504010506 | 14 | 281 | 0.0 | 0.0 | 0.00 | 0.00 | 0.00 | 67 | 1016.3 |
| 20260504010006 | 14 | 281 | 0.0 | 0.0 | 0.00 | 0.00 | 0.00 | 66 | 1016.3 |
| 20260504005505 | 15 | 281 | 0.0 | 0.0 | 0.00 | 0.00 | 0.00 | 65 | 1016.3 |
| 20260504004505 | 15 | 281 | 0.0 | 0.0 | 0.00 | 0.00 | 0.00 | 61 | 1016.2 |
| 20260504004006 | 15 | 281 | 0.0 | 0.0 | 0.00 | 0.00 | 0.00 | 59 | 1016.2 |
| 20260504003506 | 16 | 281 | 0.0 | 0.0 | 0.00 | 0.00 | 0.00 | 57 | 1016.2 |
| 20260504003006 | 16 | 281 | 0.0 | 0.0 | 0.00 | 0.00 | 0.00 | 54 | 1016.2 |
| 20260504002505 | 16 | 281 | 0.0 | 0.0 | 0.00 | 0.00 | 0.00 | 51 | 1016.2 |
| 20260504002006 | 17 | 281 | 0.0 | 3.2 | 0.00 | 0.00 | 0.00 | 50 | 1016.2 |
| 20260504001505 | 17 | 293 | 3.2 | 4.8 | 0.00 | 0.00 | 0.00 | 48 | 1016.2 |
| 20260504001005 | 17 | 311 | 0.0 | 3.2 | 0.00 | 0.00 | 0.00 | 47 | 1016.2 |
| 20260504000505 | 18 | 310 | 1.6 | 4.8 | 0.00 | 0.00 | 0.00 | 45 | 1016.2 |
| 20260504000005 | 18 | 279 | 0.0 | 4.8 | 0.00 | 0.00 | 0.00 | 44 | 1016.2 |
| 20260503235004 | 18 | 291 | 3.2 | 8.0 | 0.00 | 0.00 | 0.00 | 42 | 1016.2 |
| 20260503234506 | 18 | 284 | 3.2 | 9.7 | 0.00 | 0.00 | 0.00 | 41 | 1016.2 |
| 20260503234006 | 18 | 279 | 0.0 | 4.8 | 0.00 | 0.00 | 0.00 | 43 | 1016.2 |
| 20260503233506 | 18 | 262 | 1.6 | 8.0 | 0.00 | 0.00 | 0.00 | 40 | 1016.2 |
| 20260503233005 | 19 | 285 | 4.8 | 8.0 | 0.00 | 0.00 | 0.00 | 39 | 1016.2 |
| 20260503232504 | 19 | 285 | 1.6 | 3.2 | 0.00 | 0.00 | 0.00 | 39 | 1016.2 |
| 20260503232006 | 19 | 310 | 3.2 | 9.7 | 0.00 | 0.00 | 0.00 | 38 | 1016.2 |
| 20260503231506 | 19 | 284 | 1.6 | 4.8 | 0.00 | 0.00 | 0.00 | 39 | 1016.2 |
| 20260503231005 | 19 | 294 | 3.2 | 11.3 | 0.00 | 0.00 | 0.00 | 36 | 1016.4 |
| 20260503230505 | 19 | 305 | 3.2 | 14.5 | 0.00 | 0.00 | 0.00 | 36 | 1016.4 |
| 20260503230005 | 20 | 264 | 3.2 | 8.0 | 0.00 | 0.00 | 0.00 | 36 | 1016.4 |
| 20260503225505 | 20 | 279 | 1.6 | 8.0 | 0.00 | 0.00 | 0.00 | 38 | 1016.4 |
| 20260503225005 | 20 | 260 | 4.8 | 9.7 | 0.00 | 0.00 | 0.00 | 37 | 1016.4 |
| 20260503224506 | 20 | 251 | 1.6 | 8.0 | 0.00 | 0.00 | 0.00 | 37 | 1016.4 |
| 20260503223507 | 20 | 261 | 3.2 | 9.7 | 0.00 | 0.00 | 0.00 | 36 | 1016.4 |
| 20260503223005 | 20 | 283 | 4.8 | 14.5 | 0.00 | 0.00 | 0.00 | 36 | 1016.4 |
| 20260503222506 | 20 | 267 | 6.4 | 16.1 | 0.00 | 0.00 | 0.00 | 36 | 1016.4 |
| 20260503221505 | 20 | 289 | 3.2 | 11.3 | 0.00 | 0.00 | 0.00 | 37 | 1016.4 |
| 20260503221005 | 20 | 86 | 1.6 | 8.0 | 0.00 | 0.00 | 0.00 | 38 | 1016.4 |
| 20260503220506 | 20 | 297 | 6.4 | 12.9 | 0.00 | 0.00 | 0.00 | 36 | 1016.4 |
| 20260503215505 | 20 | 284 | 3.2 | 11.3 | 0.00 | 0.00 | 0.00 | 33 | 1016.4 |
| 20260503215005 | 20 | 253 | 4.8 | 16.1 | 0.00 | 0.00 | 0.00 | 33 | 1016.4 |
| 20260503214505 | 20 | 253 | 4.8 | 12.9 | 0.00 | 0.00 | 0.00 | 34 | 1016.4 |
| 20260503214006 | 20 | 292 | 1.6 | 4.8 | 0.00 | 0.00 | 0.00 | 38 | 1016.4 |
| 20260503213505 | 20 | 156 | 3.2 | 4.8 | 0.00 | 0.00 | 0.00 | 37 | 1016.4 |
| 20260503213007 | 20 | 258 | 3.2 | 8.0 | 0.00 | 0.00 | 0.00 | 40 | 1016.7 |
| 20260503212505 | 20 | 323 | 1.6 | 11.3 | 0.00 | 0.00 | 0.00 | 37 | 1016.7 |
| 20260503212005 | 20 | 15 | 3.2 | 11.3 | 0.00 | 0.00 | 0.00 | 37 | 1016.7 |
| 20260503211506 | 20 | 302 | 4.8 | 12.9 | 0.00 | 0.00 | 0.00 | 37 | 1016.7 |
| 20260503211005 | 20 | 215 | 6.4 | 12.9 | 0.00 | 0.00 | 0.00 | 37 | 1016.7 |
| 20260503210504 | 20 | 258 | 6.4 | 16.1 | 0.00 | 0.00 | 0.00 | 37 | 1016.7 |
| 20260503210005 | 20 | 261 | 4.8 | 12.9 | 0.00 | 0.00 | 0.00 | 37 | 1016.7 |
| 20260503205506 | 20 | 282 | 6.4 | 12.9 | 0.00 | 0.00 | 0.00 | 36 | 1016.7 |
| 20260503204505 | 21 | 267 | 6.4 | 12.9 | 0.00 | 0.00 | 0.00 | 38 | 1017.9 |
| 20260503204006 | 21 | 266 | 3.2 | 9.7 | 0.00 | 0.00 | 0.00 | 38 | 1017.9 |
| 20260503203506 | 21 | 312 | 0.0 | 11.3 | 0.00 | 0.00 | 0.00 | 39 | 1017.9 |
| 20260503203005 | 21 | 327 | 4.8 | 4.8 | 0.00 | 0.00 | 0.00 | 39 | 1017.9 |
| 20260503202504 | 21 | 211 | 0.0 | 9.7 | 0.00 | 0.00 | 0.00 | 37 | 1017.9 |
| 20260503202005 | 21 | 256 | 4.8 | 11.3 | 0.00 | 0.00 | 0.00 | 38 | 1017.9 |
| 20260503201505 | 21 | 279 | 8.0 | 14.5 | 0.00 | 0.00 | 0.00 | 36 | 1017.9 |
| 20260503201006 | 21 | 287 | 3.2 | 9.7 | 0.00 | 0.00 | 0.00 | 34 | 1017.9 |
| 20260503200005 | 21 | 316 | 3.2 | 11.3 | 0.00 | 0.00 | 0.00 | 38 | 1017.9 |
| 20260503195505 | 21 | 293 | 3.2 | 11.3 | 0.00 | 0.00 | 0.00 | 38 | 1017.9 |
| 20260503195005 | 20 | 299 | 4.8 | 9.7 | 0.00 | 0.00 | 0.00 | 38 | 1017.9 |
| 20260503194505 | 21 | 341 | 3.2 | 4.8 | 0.00 | 0.00 | 0.00 | 38 | 1017.9 |
| 20260503194005 | 20 | 351 | 1.6 | 11.3 | 0.00 | 0.00 | 0.00 | 37 | 1017.9 |
| 20260503193506 | 20 | 269 | 4.8 | 12.9 | 0.00 | 0.00 | 0.00 | 36 | 1017.9 |
| 20260503193005 | 20 | 334 | 4.8 | 12.9 | 0.00 | 0.00 | 0.00 | 36 | 1018.9 |